Torna al catalogo

STARLINK-5980

AttivoComunicazioniSSO
NORAD 56326·PAYLOAD·🇺🇸 United States

Lanciato Apr 27, 2023 da Vandenberg Space Force Base

Loading…

Prossimi Passaggi (prossime 24 ore)

TLE

AggiornatoSource: CelesTrak SupGP

Epoca: Sep 14, 2026, 13:59 UTC

1 56326C 23058K   26257.58312500  .00532350  00000+0  30421-1 0  2571
2 56326  97.2854 251.6967 0001690  92.8035  14.1836 15.12518093    17

Traccia STARLINK-5980 in tempo reale con AllMySat

Download on the App Store